RH
25 23 20 20 17 14 12 11 10 10 10 10 10 9 10 11 14 18 30 35 48 56 74 80 92 100 98
41 37 34 32 29 27 24 21 16 13 11 11 11 11 11 12 13 16 18 28 35 39 41 54 66 70 78
60 52 50 48 45 41 38 33 29 25 20 16 13 12 13 14 14 16 17 17 24 36 41 43 46 49 51
62 61 59 57 58 55 51 48 44 40 35 30 23 18 15 14 15 16 17 18 18 17 17 24 27 28 26
63 62 62 62 62 60 58 56 56 58 57 52 45 35 25 19 16 16 18 19 19 18 18 18 18 18 19
65 66 66 67 66 65 64 63 65 67 67 66 64 60 48 33 23 19 19 20 20 19 18 18 16 15 15
64 69 70 70 68 68 68 69 70 70 70 71 72 73 71 60 44 29 22 21 21 21 19 18 17 17 17
66 67 68 68 68 70 71 73 74 77 80 77 76 74 77 77 70 54 34 24 23 22 21 20 19 19 21
69 71 73 76 75 73 73 71 71 74 78 72 75 79 81 82 83 73 50 33 25 24 23 21 20 21 24
59 61 56 55 53 53 58 54 61 58 64 59 69 78 83 88 86 87 73 48 35 26 24 23 22 24 30
30 31 33 40 44 42 45 45 47 55 62 63 66 79 84 84 90 89 91 64 38 35 27 25 25 29 40
30 36 43 47 51 55 57 60 64 71 78 83 80 84 85 85 90 91 93 89 54 47 35 29 28 32 42
57 58 61 63 62 66 68 73 78 87 93 96 90 86 90 92 87 85 88 98 95 92 69 59 56 60 52
65 60 59 62 62 69 77 82 80 89 93 95 95 92 90 90 85 89 94 95 95 90 84 66 45 47 57
53 40 32 36 53 66 78 84 88 93 93 93 93 91 89 88 89 96 94 90 94 96 94 95 97 98 95
20 17 15 26 47 67 81 86 89 96 95 98 96 92 91 95 95 95 92 93 88 85 88 82 85 95 85
12 11 20 32 42 61 75 82 89 94 95 95 95 95 95 96 98 95 93 87 83 83 89 84 81 94 88
Wind_Speed
19 21 21 21 23 22 21 22 21 22 22 21 21 21 21 20 19 18 18 16 17 16 17 17 19 20 21
22 22 22 21 23 23 23 22 22 22 22 22 22 21 21 21 21 20 19 19 19 19 19 19 21 22 23
24 25 25 24 23 23 24 23 23 23 23 22 23 23 23 22 22 21 21 20 21 21 21 21 21 22 23
28 26 26 26 26 26 25 26 24 23 24 24 23 24 23 23 23 23 22 22 21 21 22 22 23 23 23
29 28 26 26 28 27 27 27 26 25 25 25 25 25 25 25 25 24 24 24 24 24 24 24 25 25 26
30 29 27 28 28 28 28 28 27 27 26 27 26 27 26 26 26 26 26 26 26 26 25 25 26 27 27
30 28 29 30 30 29 30 30 30 30 31 28 29 27 28 27 28 28 28 28 28 28 27 27 27 27 28
32 29 31 31 30 30 31 32 32 32 33 32 30 30 29 29 29 29 29 29 30 29 29 29 29 28 28
30 29 30 31 32 33 32 35 35 34 33 35 32 33 32 31 30 30 30 30 30 29 29 29 29 29 29
32 31 32 32 33 33 34 35 36 36 32 35 33 34 34 32 31 32 32 31 31 30 29 29 29 28 28
35 35 34 34 36 37 36 38 37 35 35 34 33 31 33 33 31 32 31 33 31 31 30 29 29 29 27
35 32 32 32 33 34 34 35 34 33 33 31 32 30 32 32 30 28 30 33 34 32 31 30 30 30 29
29 28 29 30 30 32 32 31 31 29 28 28 29 30 31 31 30 29 30 31 36 36 33 34 35 34 31
25 24 25 28 28 29 31 32 31 26 26 26 26 28 29 30 30 30 29 30 30 33 34 33 32 32 34
26 26 25 26 27 27 27 29 30 28 28 29 28 29 29 29 28 27 28 30 30 32 33 33 34 35 34
27 28 27 27 26 25 26 26 27 28 30 29 31 31 30 29 28 27 28 27 25 26 30 31 28 27 31
28 27 27 26 26 25 24 24 24 25 25 25 25 26 28 28 28 28 28 28 28 27 26 26 24 20 24
Wind_Direction
289 289 291 292 292 290 289 292 293 294 295 296 298 300 299 299 299 294 286 276 265 257 256 253 240 237 245
289 288 289 288 290 293 295 293 292 290 290 291 292 292 294 296 296 296 293 287 281 275 266 260 256 253 253
285 287 290 290 290 291 291 293 294 294 294 292 291 292 292 293 292 292 292 288 284 279 276 272 264 258 257
284 285 285 287 290 289 290 291 291 293 293 293 292 290 288 287 287 286 284 282 280 279 278 276 273 271 269
283 282 284 284 284 285 286 288 291 292 293 293 292 290 288 285 282 280 280 279 278 276 274 273 272 272 271
280 281 282 279 279 283 285 286 288 288 289 289 289 289 288 286 283 280 277 275 275 274 273 273 272 272 272
279 279 276 278 280 283 284 286 288 290 288 287 287 287 286 285 284 281 279 277 275 274 273 272 271 270 270
276 275 276 277 279 281 283 285 285 285 285 286 285 284 284 283 282 281 279 277 276 276 275 274 274 275 276
272 276 279 280 281 281 282 280 280 281 284 286 285 284 283 282 280 277 276 275 274 273 273 273 274 273 273
277 276 276 275 276 277 277 279 280 283 282 282 283 285 283 279 281 276 273 272 272 271 271 270 269 268 269
277 276 276 277 280 280 280 281 282 283 283 281 281 281 281 284 278 282 277 268 269 270 270 269 269 268 268
280 281 280 278 276 277 278 279 279 278 277 279 279 277 278 284 278 278 276 267 265 266 268 270 269 269 268
282 282 280 278 278 278 275 274 275 277 279 279 278 277 276 274 277 275 272 269 266 263 263 265 268 268 269
285 284 283 283 283 281 279 273 271 274 276 278 280 280 279 276 275 274 276 273 269 262 262 263 263 264 265
290 289 288 285 286 286 283 274 271 271 272 275 277 277 274 275 276 279 271 273 269 268 270 268 267 269 271
292 291 291 288 285 284 281 277 273 271 271 270 270 270 271 274 275 272 272 269 266 266 267 268 265 267 270
295 293 291 290 285 282 279 277 274 269 267 267 269 273 275 273 269 271 271 271 269 272 274 275 274 269 269